#timestamp,LO_Frequency,Hit,StdDev 
1678622415.1,286046992.4,N
1678622435.9,286046992.4,N
1678622455.7,286046993.7,N
1678622475.6,286047000.7,N
1678622495.4,286047005.9,N
1678622515.2,286047006.2,N
1678622535.1,286047011.7,N
1678622536.0,286047011.7,N
1678622555.8,286047004.7,N
1678622575.6,286047000.8,N
1678622595.5,286047001.1,N
1678622615.3,286047003.6,N
1678622635.2,286047003.4,N
1678622655.9,286047008.4,N
1678622675.7,286047005.8,N
1678622695.6,286046999.7,N
1678622715.4,286047004.3,N
1678622735.2,286047003.8,N
1678622755.1,286047003.8,N
1678622756.0,286047003.8,N
1678622775.8,286046998.6,N
1678622795.7,286046993.5,N
1678622815.5,286046991.1,N
1678622835.3,286046993.1,N
1678622855.2,286046992.4,N
1678622875.0,286046996.9,N
1678622875.9,286046996.9,N
1678622895.7,286047002.6,N
1678622915.6,286046998.3,N
1678622935.4,286046998.6,N
1678622955.3,286046997.1,N
1678622975.1,286047003.9,N
1678622976.0,286047003.9,N
1678622995.8,286047016.8,Y
1678623015.7,286047020.4,P
1678623035.5,286047016.5,N
1678623055.4,286047015.1,N
1678623075.2,286047012.9,N
1678623095.0,286047013.8,N
1678623095.9,286047013.8,N
1678623115.8,286047014.6,N
1678623135.6,286047014.5,N
1678623155.4,286047011.2,N
1678623175.3,286047009.1,N
1678623195.1,286047004.0,N
1678623215.9,286047001.9,N
1678623235.7,286047005.4,N
1678623255.5,286047010.9,N
1678623275.4,286047014.5,N
1678623295.2,286047016.0,Y
1678623315.1,286047010.5,P
1678623316.0,286047010.5,P
1678623335.8,286047012.6,P
1678623355.6,286047020.2,Y
1678623375.5,286047007.1,P
1678623395.3,286047008.4,P
1678623415.1,286047008.6,P
1678623435.9,286047009.9,Y
1678623455.7,286046998.6,P
1678623475.6,286046993.9,N
1678623495.4,286046997.0,N
1678623515.2,286047003.7,N
1678623535.1,286046996.2,N
1678623536.0,286046996.2,N
1678623555.8,286046989.3,N
1678623575.7,286046991.8,N
1678623595.5,286046992.6,N
1678623615.3,286046983.8,N
1678623635.2,286046978.9,Y
1678623655.0,286046986.4,P
1678623655.9,286046986.4,N
1678623675.8,286046980.0,P
1678623695.6,286046974.2,Y
1678623715.4,286046989.5,P
1678623735.3,286046988.6,P
1678623755.1,286046992.3,P
1678623775.9,286047001.4,N
1678623795.7,286047012.1,N
1678623815.5,286047002.9,N
1678623835.4,286046998.3,N
1678623855.2,286046996.6,N
1678623875.0,286047000.7,N
1678623875.9,286047000.7,N
1678623895.8,286047000.2,N
1678623915.6,286046997.4,N
1678623935.5,286046990.2,N
1678623955.3,286046987.5,N
1678623975.1,286046985.5,N
1678623995.9,286046991.5,N
1678624015.7,286046989.9,N
1678624035.6,286046991.8,N
1678624055.4,286047002.8,N
1678624075.2,286047004.3,N
1678624095.1,286047011.9,N
1678624096.0,286047011.9,N
1678624115.8,286047016.3,N
1678624135.6,286047016.4,N
1678624155.5,286047013.8,N
1678624175.3,286047017.1,N
1678624195.1,286047025.8,N
1678624215.9,286047033.2,Y
1678624235.7,286047031.7,P
1678624255.6,286047033.3,N
1678624275.4,286047033.8,N
1678624295.2,286047031.8,N
1678624315.1,286047032.4,N
1678624316.0,286047032.4,N
1678624335.8,286047025.4,N
1678624355.7,286047026.4,N
1678624375.5,286047018.3,N
1678624395.3,286047016.8,N
1678624415.2,286047020.1,N
1678624435.9,286047018.6,N
1678624455.7,286047019.5,N
1678624475.6,286047031.9,Y
1678624495.4,286047016.1,P
1678624515.3,286047022.6,P
1678624535.1,286047018.9,P
1678624536.0,286047018.9,Y
1678624555.8,286046991.0,P
1678624575.7,286046989.7,N
1678624595.5,286046992.8,N
1678624615.3,286046996.7,N
1678624635.2,286047003.6,N
1678624655.0,286047009.8,N
1678624655.9,286047009.8,N
1678624675.8,286047022.0,N
1678624695.6,286047021.6,N
1678624715.4,286047018.7,N
1678624735.3,286047020.5,N
1678624755.1,286047018.5,N
1678624775.8,286047016.5,N
1678624795.7,286047015.0,N
1678624815.5,286047009.4,N
1678624835.4,286047011.3,N
1678624855.2,286047014.0,N
1678624875.0,286047011.7,N
1678624875.9,286047011.7,N
1678624895.8,286047018.5,N
1678624915.6,286047022.5,N
1678624935.4,286047014.4,N
1678624955.3,286047015.6,N
1678624975.1,286047012.9,N
1678624995.9,286047014.6,N
1678625015.7,286047017.3,N
1678625035.5,286047025.1,N
1678625055.4,286047027.3,N
1678625075.2,286047023.9,N
1678625095.0,286047027.1,N
1678625095.9,286047027.1,N
1678625115.8,286047028.7,Y
1678625135.6,286047022.4,P
1678625155.5,286047024.8,P
1678625175.3,286047024.5,P
1678625195.2,286047022.2,Y
1678625215.9,286047000.5,P
1678625235.7,286047002.5,N
1678625255.6,286046996.8,N
1678625275.4,286046993.4,N
1678625295.2,286046992.8,N
1678625315.1,286046992.3,N
1678625316.0,286046992.3,N
1678625335.8,286046991.8,N
1678625355.7,286046981.4,N
1678625375.5,286046974.4,N
1678625395.3,286046988.4,N
1678625415.2,286046988.7,N
1678625435.0,286046993.9,N
1678625435.9,286046993.9,N
1678625455.7,286046994.4,N
1678625475.6,286046997.7,N
1678625495.4,286046998.7,N
1678625515.3,286046999.4,N
1678625535.1,286046996.7,N
1678625536.0,286046996.7,N
1678625555.8,286046997.7,N
1678625575.7,286047001.2,N
1678625595.5,286046996.6,N
1678625615.3,286046995.3,N
1678625635.2,286046997.4,N
1678625655.0,286046997.4,N
1678625655.9,286046997.4,N
1678625675.8,286047002.6,N
1678625695.6,286047003.3,N
1678625715.4,286046997.2,N
1678625735.3,286047003.2,N
1678625755.1,286047003.1,N
1678625775.8,286047011.3,N
1678625795.7,286047008.3,N
1678625815.5,286047003.0,N
1678625835.4,286047000.5,N
1678625855.2,286046995.5,N
1678625875.0,286046996.2,N
1678625875.9,286046996.2,N
1678625895.8,286047000.9,N
1678625915.6,286046998.2,N
1678625935.4,286046998.6,N
1678625955.3,286047000.0,N
1678625975.1,286047004.6,N
1678625995.9,286047012.9,Y
